This is the latest recevied weather packets stored in our database for station/object DK7LH-6. If no packets are shown the sender has not sent any weather packets the latest 10 day(s).
| Time | Temp. | Humidity | Pressure | Rain* | Wind** | Luminosity | Snow |
|---|---|---|---|---|---|---|---|
| 1778222758 | 8.89° C | 89% | 1019.4 hPa | 0 mm | - | 205 W/m² | - |
| 1778221828 | 7.78° C | 95% | 1019.2 hPa | 0 mm | - | 180 W/m² | - |
| 1778220960 | 7.22° C | 97% | 1019.1 hPa | 0 mm | - | 117 W/m² | - |
| 1778220030 | 7.22° C | 98% | 1018.9 hPa | 0 mm | - | 102 W/m² | - |
| 1778219162 | 7.22° C | 98% | 1018.9 hPa | 0 mm | - | 69 W/m² | - |
| 1778218232 | 6.11° C | 99% | 1018.9 hPa | 0 mm | - | 40 W/m² | - |
| 1778217364 | 4.44° C | 99% | 1018.9 hPa | 0 mm | - | 47 W/m² | - |
| 1778216434 | 4.44° C | 99% | 1018.7 hPa | 0 mm | - | 40 W/m² | - |
| 1778215566 | 3.89° C | 99% | 1018.5 hPa | 0 mm | - | 30 W/m² | - |
| 1778214667 | 3.89° C | 98% | 1018.5 hPa | 0 mm | - | 21 W/m² | - |
| 1778213737 | 3.89° C | 98% | 1018.4 hPa | 0 mm | - | 12 W/m² | - |
| 1778212870 | 3.89° C | 98% | 1018.6 hPa | 0 mm | - | 6 W/m² | - |
| 1778211940 | 3.33° C | 98% | 1018.5 hPa | 0 mm | - | 2 W/m² | - |
| 1778211071 | 3.33° C | 98% | 1018.3 hPa | 0 mm | - | 0 W/m² | - |
| 1778210141 | 3.33° C | 97% | 1018.2 hPa | 0 mm | - | 0 W/m² | - |
| 1778209274 | 3.89° C | 97% | 1018.3 hPa | 0 mm | - | 0 W/m² | - |
| 1778208344 | 3.89° C | 97% | 1018.2 hPa | 0 mm | - | 0 W/m² | - |
| 1778207476 | 3.89° C | 97% | 1018.3 hPa | 0 mm | - | 0 W/m² | - |
| 1778206546 | 4.44° C | 97% | 1018.3 hPa | 0 mm | - | 0 W/m² | - |
| 1778205677 | 3.89° C | 97% | 1018.3 hPa | 0 mm | - | 0 W/m² | - |
| 1778204747 | 4.44° C | 96% | 1018.3 hPa | 0 mm | - | 0 W/m² | - |
| 1778203817 | 5° C | 96% | 1018.2 hPa | 0 mm | - | 0 W/m² | - |
| 1778202949 | 5° C | 96% | 1018.1 hPa | 0 mm | - | 0 W/m² | - |
| 1778202019 | 5° C | 96% | 1018.1 hPa | 0 mm | - | 0 W/m² | - |
| 1778201151 | 5.56° C | 96% | 1018.1 hPa | 0 mm | - | 0 W/m² | - |
* Rain latest hour (hover to see other rain measurements)
** Current wind speed in m/s (hover to see current wind gust speed)